TimePST,TemperatureF,Dew PointF,Humidity,Sea Level PressureIn,VisibilityMPH,Wind Direction,Wind SpeedMPH,Gust SpeedMPH,PrecipitationIn,Events,Conditions,WindDirDegrees,DateUTC
12:56 AM,30.9,27.0,85,29.94,6.0,NW,11.5,26.5,0.00,Snow,Light Snow,310,2013-02-20 08:56:00
1:56 AM,30.9,26.1,82,29.95,10.0,Variable,5.8,-,0.00,,Overcast,0,2013-02-20 09:56:00
2:56 AM,30.0,26.1,85,29.96,10.0,Calm,Calm,-,N/A,,Mostly Cloudy,0,2013-02-20 10:56:00
3:04 AM,30.2,24.8,80,29.86,10.0,Variable,4.6,-,N/A,,Scattered Clouds,0,2013-02-20 11:04:00
3:25 AM,30.2,24.8,80,29.87,10.0,Variable,5.8,-,N/A,,Mostly Cloudy,0,2013-02-20 11:25:00
3:56 AM,30.0,26.1,85,30.00,10.0,NNW,8.1,-,N/A,,Overcast,330,2013-02-20 11:56:00
4:56 AM,30.0,26.1,85,30.02,10.0,NW,5.8,16.1,N/A,,Mostly Cloudy,310,2013-02-20 12:56:00
5:24 AM,28.4,24.8,86,29.92,10.0,Variable,5.8,-,N/A,,Scattered Clouds,0,2013-02-20 13:24:00
5:46 AM,30.2,24.8,80,29.93,10.0,NW,5.8,-,N/A,,Mostly Cloudy,320,2013-02-20 13:46:00
5:56 AM,30.0,25.0,82,30.04,10.0,Variable,4.6,-,N/A,,Overcast,0,2013-02-20 13:56:00
6:56 AM,30.0,25.0,82,30.07,10.0,Variable,3.5,-,N/A,,Overcast,0,2013-02-20 14:56:00
7:56 AM,30.9,25.0,79,30.09,10.0,NNE,3.5,-,N/A,,Overcast,30,2013-02-20 15:56:00
8:56 AM,32.0,25.0,75,30.11,10.0,Variable,5.8,-,N/A,,Overcast,0,2013-02-20 16:56:00
9:56 AM,33.1,26.1,75,30.11,10.0,Variable,6.9,-,N/A,,Overcast,0,2013-02-20 17:56:00
10:56 AM,36.0,25.0,64,30.11,10.0,Variable,6.9,-,N/A,,Overcast,0,2013-02-20 18:56:00
11:56 AM,39.0,24.1,55,30.10,10.0,Variable,4.6,-,N/A,,Scattered Clouds,0,2013-02-20 19:56:00
12:56 PM,39.0,24.1,55,30.08,10.0,North,5.8,-,N/A,,Scattered Clouds,10,2013-02-20 20:56:00
1:56 PM,42.1,24.1,49,30.07,10.0,Variable,6.9,-,N/A,,Clear,0,2013-02-20 21:56:00
2:56 PM,39.0,21.0,49,30.06,10.0,Variable,3.5,-,N/A,,Overcast,0,2013-02-20 22:56:00
3:56 PM,41.0,19.9,43,30.05,10.0,Variable,5.8,-,N/A,,Mostly Cloudy,0,2013-02-20 23:56:00
4:56 PM,41.0,21.0,45,30.04,10.0,NW,5.8,-,N/A,,Mostly Cloudy,310,2013-02-21 00:56:00
5:56 PM,36.0,23.0,59,30.06,10.0,Variable,3.5,-,N/A,,Overcast,0,2013-02-21 01:56:00
6:56 PM,32.0,24.1,73,30.08,10.0,Calm,Calm,-,N/A,,Overcast,0,2013-02-21 02:56:00
7:56 PM,33.1,24.1,70,30.08,10.0,Calm,Calm,-,N/A,,Overcast,0,2013-02-21 03:56:00
8:56 PM,35.1,24.1,64,30.08,10.0,Variable,4.6,-,N/A,,Scattered Clouds,0,2013-02-21 04:56:00
9:56 PM,33.1,23.0,66,30.09,10.0,West,3.5,-,N/A,,Partly Cloudy,280,2013-02-21 05:56:00
10:56 PM,35.1,24.1,64,30.07,10.0,Variable,3.5,-,N/A,,Overcast,0,2013-02-21 06:56:00
11:56 PM,34.0,25.0,70,30.08,10.0,WNW,5.8,-,0.01,,Overcast,300,2013-02-21 07:56:00